[[{"header":{"parameterUnit":"m.s-1","parameterCategory":1,"la1":30.2991,"la2":30.254,"lo1":-89.0895,"lo2":-89.0444,"dy":0.0017,"dx":0.0017,"nx":28,"ny":28,"refTime":"2023-08-29T09:00:00:Z","depth":0,"parameterNumber":2,"parameterNumberName":"U-component_of_WINDS"},"data":[0,0,0,0,0,0,0,0,0,0,0,0,0,0,0,0,0,0,0,0,0,0,0,0,0,0,0,0,0,0,0,0,0,0,0,0,0,0,0,0,0,0,0,0,0,0,0,0,0,0,0,0,0,0,0,0,0,0,-0.7814,-0.7815,0,-0.7868,-0.7869,-0.7869,-0.78,-0.7798,-0.7795,-0.7793,-0.7852,-0.7856,-0.786,0,0,0,0,0,0,0,0,0,0,0,0,0,-0.7653,-0.7657,-0.7814,-0.7815,-0.7815,-0.7868,-0.7869,-0.7869,-0.7801,-0.7798,-0.7795,-0.7792,-0.7851,-0.7855,-0.786,0,0,0,0,0,0,0,0,0,0,0,0,0,-0.7717,-0.7658,-0.7814,-0.7787,-0.7785,-0.7868,-0.7869,-0.787,-0.7801,-0.7798,-0.7794,-0.779,-0.7849,-0.7855,-0.7861,-0.7973,0,0,-0.7879,-0.7881,0,0,0,0,0,0,0,0,-0.7714,-0.7723,-0.7791,-0.7789,-0.7787,-0.7823,-0.7834,-0.7904,-0.7802,-0.7796,-0.7793,-0.7788,-0.7846,-0.7852,-0.787,-0.7975,-0.7978,-0.7879,-0.7883,-0.7885,-0.7887,0,0,0,0,0,0,0,-0.7709,-0.772,-0.7835,-0.7792,-0.779,-0.7773,-0.7778,-0.7847,-0.7841,-0.7796,-0.7791,-0.7798,-0.7844,-0.7865,-0.7871,-0.7979,-0.7879,-0.7884,-0.7888,-0.789,-0.8178,-0.8182,0,0,0,0,0,0,-0.7708,-0.7717,-0.7834,-0.7837,-0.774,-0.7779,-0.7785,-0.7816,-0.784,-0.784,-0.7801,-0.7795,-0.7857,-0.7864,-0.7873,-0.8006,-0.7885,-0.7891,-0.7894,-0.8174,-0.8179,-0.8184,0,0,0,0,0,0,-0.7704,-0.7719,-0.7832,-0.7776,-0.7789,-0.7786,-0.7822,-0.7819,-0.7839,-0.7844,-0.7843,-0.7823,-0.7854,-0.7865,-0.7948,-0.8008,-0.7893,-0.7899,-0.817,-0.8176,-0.8182,-0.8274,0,0,0,0,0,0,-0.77,-0.7718,-0.776,-0.7777,-0.7792,-0.7906,-0.7825,-0.7823,-0.7849,-0.7841,-0.7865,-0.7865,-0.7852,-0.794,-0.7954,-0.8014,-0.7903,-0.8164,-0.8172,-0.818,-0.8266,-0.8283,-0.8297,0,0,0,0,0,-0.7695,-0.7785,-0.7763,-0.7777,-0.7845,-0.7909,-0.7918,-0.79,-0.7854,-0.7897,-0.79,-0.7864,-0.7998,-0.7949,-0.7964,-0.8027,-0.816,-0.817,-0.8179,-0.8259,-0.828,-0.8297,0,0,0,0,0,0,-0.7777,-0.7787,-0.7762,-0.7861,-0.7884,-0.7897,-0.7951,-0.7922,-0.796,-0.7952,-0.7928,-0.7934,-0.8023,-0.8032,-0.7978,-0.8136,-0.8072,-0.8085,-0.8127,-0.8147,-0.8162,-0.816,-0.7908,0,0,0,0,0,-0.7806,-0.7857,-0.7863,-0.7949,-0.7962,-0.7955,-0.7982,-0.7966,-0.799,-0.8,-0.8009,-0.8035,-0.8082,-0.8115,-0.8159,-0.8266,-0.8271,-0.8316,-0.8332,-0.8345,-0.8357,-0.8415,-0.8436,-0.8214,-0.8214,-0.8214,0,0,-0.7868,-0.7879,-0.7913,-0.7966,-0.7982,-0.8036,-0.7964,-0.8024,-0.8064,-0.8009,-0.8089,-0.8096,-0.8123,-0.8219,-0.8262,-0.823,-0.8418,-0.8356,-0.8367,-0.8372,-0.8427,-0.8448,-0.8466,-0.8221,-0.822,-0.8219,0,0,-0.8008,-0.8021,-0.8095,-0.8112,-0.8138,-0.8132,-0.8149,-0.8166,-0.8169,-0.8248,-0.8208,-0.8255,-0.8337,-0.8358,-0.838,-0.8526,-0.8495,-0.8541,-0.8624,-0.8681,-0.8698,-0.8714,-0.8767,-0.8787,-0.8552,-0.8553,-0.8553,0,-0.8083,-0.8161,-0.8137,-0.82,-0.8224,-0.8175,-0.825,-0.8268,-0.8307,-0.8326,-0.8289,-0.8391,-0.8405,-0.8506,-0.8541,-0.8559,-0.858,-0.854,-0.8697,-0.8713,-0.8727,-0.8778,-0.8798,-0.8558,-0.8557,-0.8557,-0.8556,0,-0.8252,-0.8307,-0.8363,-0.8401,-0.8431,-0.85,-0.8487,-0.852,-0.85,-0.8499,-0.858,-0.8595,-0.8641,-0.8663,-0.8645,-0.8761,-0.874,-0.8701,-0.8636,-0.8754,-0.8801,-0.882,-0.8566,-0.8564,-0.8562,-0.8561,0,0,-0.8449,-0.847,-0.8492,-0.8508,-0.8531,-0.8574,-0.8639,-0.8683,-0.8714,-0.8741,-0.8797,-0.8867,-0.8829,-0.8854,-0.8837,-0.8886,-0.9003,-0.8841,-0.8841,-0.8872,-0.9133,-0.9165,-0.9188,-0.898,-0.8984,-0.8987,-0.9131,0,-0.8591,-0.8705,-0.8684,-0.8795,-0.8846,-0.8798,-0.8856,-0.8877,-0.8876,-0.892,-0.8919,-0.8969,-0.8915,-0.893,-0.8976,-0.8979,-0.9055,-0.8968,-0.9034,-0.9037,-0.9032,-0.9212,-0.9246,-0.9382,-0.9149,-0.9153,-0.9155,0,-0.8773,-0.8806,-0.8922,-0.8936,-0.8957,-0.9009,-0.9047,-0.9089,-0.9111,-0.9107,-0.9133,-0.9107,-0.9173,-0.9105,-0.9196,-0.9137,-0.9162,-0.9167,-0.9172,-0.918,-0.9105,-0.9228,-0.9425,-0.9446,-0.9184,-0.9181,-0.9179,0,-0.8908,-0.8981,-0.906,-0.9075,-0.9093,-0.9131,-0.914,-0.9159,-0.9186,-0.9219,-0.9237,-0.9278,-0.9301,-0.9334,-0.9319,-0.927,-0.9414,-0.9344,-0.9414,-0.9415,-0.9449,-0.9448,-0.9656,-0.9461,-0.9461,-0.946,-0.946,0,-0.9071,-0.9144,-0.9121,-0.917,-0.9251,-0.9225,-0.9306,-0.9309,-0.9326,-0.9375,-0.9335,-0.9383,-0.9359,-0.9405,-0.9393,-0.9472,-0.9482,-0.9482,-0.9478,-0.9487,-0.9487,-0.9506,-0.9497,-0.9466,-0.9464,-0.9463,-0.9462,0,-0.9237,-0.9224,-0.9307,-0.9316,-0.932,-0.9379,-0.9387,-0.9434,-0.9428,-0.9491,-0.9504,-0.9497,-0.9549,-0.9536,-0.9593,-0.9585,-0.9684,-0.9668,-0.9677,-0.9674,-0.9745,-0.974,-0.9975,-1.0005,-0.9788,-0.979,-0.9792,0,-0.9343,-0.9398,-0.9412,-0.9442,-0.9454,-0.9502,-0.9529,-0.9505,-0.9536,-0.9564,-0.9607,-0.9654,-0.9691,-0.9776,-0.9776,-0.9819,-0.9805,-0.9884,-0.9812,-0.9818,-0.9809,-0.9807,-0.9813,-0.99,-0.9903,-0.9905,-0.9906,0,-0.9533,-0.9523,-0.9564,-0.9602,-0.9635,-0.9665,-0.969,-0.9717,-0.9694,-0.973,-0.9782,-0.981,-0.9867,-0.9915,-0.9954,-0.9964,-0.9933,-0.9928,-0.9947,-0.9958,-0.9962,-0.9963,-0.9719,-0.9924,-0.9922,-0.9921,-0.992,-0.9919,-0.9674,-0.9721,-0.9738,-0.9784,-0.98,-0.9825,-0.9868,-0.9868,-0.991,-0.9954,-0.9936,-0.9996,-1.0015,-1.0064,-1.0079,-1.0125,-1.0096,-1.0123,-1.013,-1.0138,-1.0147,-0.9952,-1.0132,-1.0132,-1.0131,-1.0131,-1.013,0,-0.9864,-0.9872,-0.9915,-0.9951,-0.9987,-0.9951,-0.9977,-1.001,-1.0063,-1.0083,-1.0119,-1.0178,-1.0224,-1.0227,-1.027,-1.0307,-1.0294,-1.032,-1.0318,-1.0322,-1.0171,-1.0151,-1.033,-1.033,-1.033,-1.033,-1.033,-1.033,-0.9968,-1.0045,-1.0038,-1.0123,-1.013,-1.0187,-1.0205,-1.0227,-1.0243,-1.0311,-1.0348,-1.0349,-1.0363,-1.0406,-1.0447,-1.0446,-1.0465,-1.0498,-1.0492,-1.0352,-1.0332,-1.0313,-1.0295,-1.0501,-1.0501,-1.0639,-1.0641,-1.0642]},{"header":{"parameterUnit":"m.s-1","parameterCategory":1,"la1":30.2991,"la2":30.254,"lo1":-89.0895,"lo2":-89.0444,"dy":0.0017,"dx":0.0017,"nx":28,"ny":28,"refTime":"2023-08-29T09:00:00:Z","depth":0,"parameterNumber":3,"parameterNumberName":"V-component_of_WINDS"},"data":[0,0,0,0,0,0,0,0,0,0,0,0,0,0,0,0,0,0,0,0,0,0,0,0,0,0,0,0,0,0,0,0,0,0,0,0,0,0,0,0,0,0,0,0,0,0,0,0,0,0,0,0,0,0,0,0,0,0,-3.5815,-3.5815,0,-3.5896,-3.5897,-3.5898,-3.5851,-3.5849,-3.5846,-3.5844,-3.5924,-3.5928,-3.5932,0,0,0,0,0,0,0,0,0,0,0,0,0,-3.5612,-3.5616,-3.5814,-3.5816,-3.5817,-3.5896,-3.5897,-3.5898,-3.5851,-3.5848,-3.5846,-3.5843,-3.5922,-3.5927,-3.5932,0,0,0,0,0,0,0,0,0,0,0,0,0,-3.5698,-3.5618,-3.5814,-3.5803,-3.5802,-3.5896,-3.5897,-3.5899,-3.5852,-3.5848,-3.5845,-3.5842,-3.5921,-3.5927,-3.5933,-3.6041,0,0,-3.5953,-3.5955,0,0,0,0,0,0,0,0,-3.5693,-3.5705,-3.5803,-3.5804,-3.5804,-3.586,-3.5855,-3.5946,-3.5853,-3.5833,-3.5844,-3.584,-3.5905,-3.5912,-3.5935,-3.6045,-3.6048,-3.5953,-3.5957,-3.596,-3.5962,0,0,0,0,0,0,0,-3.5687,-3.5701,-3.5847,-3.5805,-3.5805,-3.5792,-3.58,-3.5872,-3.5887,-3.5834,-3.5831,-3.5842,-3.5904,-3.5929,-3.5937,-3.605,-3.5953,-3.5959,-3.5963,-3.5965,-3.625,-3.6254,0,0,0,0,0,0,-3.5683,-3.5697,-3.5844,-3.5849,-3.5739,-3.5798,-3.5807,-3.5845,-3.5886,-3.5889,-3.5845,-3.5839,-3.592,-3.5929,-3.5939,-3.6068,-3.596,-3.5966,-3.5969,-3.6247,-3.6251,-3.6255,0,0,0,0,0,0,-3.5678,-3.5696,-3.5841,-3.5772,-3.579,-3.5805,-3.5848,-3.5849,-3.5873,-3.5894,-3.5896,-3.5868,-3.5918,-3.593,-3.6016,-3.607,-3.5969,-3.5974,-3.6242,-3.6248,-3.6253,-3.6326,0,0,0,0,0,0,-3.5673,-3.5695,-3.5738,-3.5774,-3.5793,-3.5918,-3.5851,-3.5853,-3.5885,-3.5879,-3.5916,-3.5919,-3.5916,-3.6007,-3.6023,-3.6077,-3.5979,-3.6237,-3.6245,-3.6251,-3.6319,-3.6333,-3.6346,0,0,0,0,0,-3.5666,-3.5754,-3.574,-3.5758,-3.5847,-3.5921,-3.5933,-3.5929,-3.589,-3.5932,-3.5945,-3.5918,-3.6062,-3.6016,-3.6033,-3.609,-3.6234,-3.6243,-3.6251,-3.6313,-3.633,-3.6345,0,0,0,0,0,0,-3.5723,-3.5759,-3.5743,-3.5846,-3.5881,-3.5913,-3.5966,-3.5948,-3.5993,-3.5985,-3.5977,-3.5986,-3.6075,-3.6091,-3.604,-3.6196,-3.6141,-3.6154,-3.6182,-3.6199,-3.6213,-3.6206,-3.5985,0,0,0,0,0,-3.5748,-3.5807,-3.5834,-3.5922,-3.5941,-3.5951,-3.5983,-3.5977,-3.6012,-3.6026,-3.6045,-3.6079,-3.6132,-3.6166,-3.6216,-3.6321,-3.6327,-3.6368,-3.6382,-3.6393,-3.6403,-3.6458,-3.6476,-3.6283,-3.6283,-3.6283,0,0,-3.5799,-3.5826,-3.5863,-3.5934,-3.5961,-3.602,-3.5963,-3.6029,-3.6072,-3.6035,-3.6118,-3.6133,-3.617,-3.6266,-3.6308,-3.6282,-3.6458,-3.6403,-3.6412,-3.6416,-3.6468,-3.6487,-3.6503,-3.6289,-3.6288,-3.6287,0,0,-3.5923,-3.595,-3.6026,-3.6054,-3.6094,-3.61,-3.6119,-3.6153,-3.6162,-3.6245,-3.6219,-3.6269,-3.636,-3.6388,-3.6413,-3.6547,-3.6523,-3.6563,-3.6633,-3.6687,-3.6702,-3.6715,-3.6761,-3.6778,-3.6573,-3.6574,-3.6574,0,-3.5981,-3.6071,-3.6067,-3.6134,-3.6165,-3.6136,-3.6212,-3.6238,-3.6293,-3.6314,-3.6283,-3.6397,-3.642,-3.652,-3.6553,-3.6575,-3.6594,-3.6558,-3.67,-3.6714,-3.6726,-3.677,-3.6787,-3.6578,-3.6578,-3.6577,-3.6577,0,-3.614,-3.6203,-3.6259,-3.6314,-3.6351,-3.6422,-3.6426,-3.6465,-3.6455,-3.6464,-3.6547,-3.6574,-3.6628,-3.6651,-3.6642,-3.675,-3.6732,-3.6701,-3.6646,-3.6749,-3.679,-3.6807,-3.6585,-3.6583,-3.6582,-3.658,0,0,-3.6303,-3.6354,-3.6374,-3.6398,-3.6441,-3.6488,-3.6557,-3.6611,-3.6643,-3.6681,-3.6738,-3.6815,-3.6787,-3.6816,-3.6809,-3.6857,-3.6959,-3.682,-3.682,-3.6844,-3.7078,-3.71,-3.712,-3.6943,-3.6947,-3.6949,-3.7074,0,-3.6428,-3.6551,-3.6548,-3.6661,-3.6717,-3.669,-3.6749,-3.6781,-3.6791,-3.6839,-3.6848,-3.6903,-3.6862,-3.6879,-3.6925,-3.6937,-3.7005,-3.6928,-3.6994,-3.6997,-3.6985,-3.7141,-3.7166,-3.7282,-3.709,-3.7093,-3.7095,0,-3.6592,-3.6637,-3.6755,-3.6788,-3.6812,-3.6866,-3.6914,-3.6961,-3.6996,-3.6999,-3.7032,-3.7018,-3.7085,-3.7029,-3.7121,-3.7069,-3.7095,-3.7105,-3.7109,-3.7115,-3.7051,-3.715,-3.7319,-3.7337,-3.712,-3.7118,-3.7116,0,-3.6697,-3.6787,-3.6869,-3.689,-3.6931,-3.697,-3.6988,-3.702,-3.7052,-3.7093,-3.7114,-3.7163,-3.7189,-3.7226,-3.7225,-3.7184,-3.7318,-3.7262,-3.7321,-3.7321,-3.735,-3.7348,-3.7525,-3.7369,-3.7369,-3.7369,-3.7368,0,-3.6837,-3.6911,-3.6917,-3.6967,-3.7048,-3.7043,-3.7123,-3.7137,-3.7165,-3.7216,-3.7195,-3.7244,-3.7239,-3.7288,-3.7287,-3.7362,-3.7375,-3.7378,-3.7377,-3.738,-3.7379,-3.7396,-3.7388,-3.7373,-3.7372,-3.7371,-3.7371,0,-3.6968,-3.6975,-3.7063,-3.7095,-3.7104,-3.7162,-3.7189,-3.7236,-3.7243,-3.7308,-3.7323,-3.7335,-3.739,-3.7393,-3.7457,-3.7456,-3.7548,-3.7538,-3.7537,-3.7535,-3.7594,-3.7588,-3.7787,-3.7813,-3.7641,-3.7643,-3.7644,0,-3.7057,-3.7113,-3.7151,-3.7184,-3.7205,-3.726,-3.7292,-3.7289,-3.7324,-3.7367,-3.7408,-3.7462,-3.7505,-3.7595,-3.7608,-3.7656,-3.7647,-3.7713,-3.7654,-3.7654,-3.7646,-3.7643,-3.7647,-3.7725,-3.7727,-3.7728,-3.7729,0,-3.7213,-3.7214,-3.7263,-3.7313,-3.7353,-3.7392,-3.7428,-3.7456,-3.7457,-3.7497,-3.7554,-3.7588,-3.7653,-3.7706,-3.7753,-3.777,-3.7749,-3.7748,-3.7764,-3.7767,-3.7764,-3.7765,-3.7567,-3.7743,-3.7742,-3.7741,-3.774,-3.774,-3.7325,-3.7373,-3.7407,-3.7461,-3.7488,-3.7523,-3.7568,-3.7581,-3.763,-3.7683,-3.7678,-3.7741,-3.7772,-3.7834,-3.7854,-3.7902,-3.7879,-3.7903,-3.7909,-3.7915,-3.792,-3.7757,-3.7911,-3.7911,-3.791,-3.791,-3.791,0,-3.7479,-3.7499,-3.755,-3.7601,-3.7644,-3.7623,-3.7661,-3.7698,-3.7754,-3.7786,-3.7828,-3.7893,-3.7945,-3.7961,-3.8011,-3.8046,-3.8037,-3.8059,-3.8055,-3.8059,-3.7939,-3.7919,-3.8064,-3.8064,-3.8064,-3.8064,-3.8064,-3.8064,-3.7564,-3.7644,-3.7648,-3.774,-3.7759,-3.7822,-3.7846,-3.7876,-3.7901,-3.7975,-3.8018,-3.8029,-3.8055,-3.8105,-3.8151,-3.8154,-3.8172,-3.8197,-3.8197,-3.8084,-3.8068,-3.8053,-3.8035,-3.8202,-3.8202,-3.8313,-3.8314,-3.8315]}]]